When you browse on this site, cookies collect data to enhance your experience and personalize the content and advertising you see.
Visit our Privacy Policy to learn more. By continuing to use the site, you agree to this use of cookies and data.
  • In United Kingdom
  • List of Countries
  • For 7 days
  • Water Temperature
  • Weather Map
  • Weather Widgets
  • user-avatar
    Login

    Hourly Weather Jelgava

    Today, 6 June, Saturday

    Time Temperature Precipitation Wind Pressure Humidity
    00:00 +15°C° 2.5 mm 6 mps 747 mmHg 94%
    01:00 +14°C° 2.5 mm 6 mps 747 mmHg 94%
    02:00 +14°C° 0 mm 5 mps 747 mmHg 96%
    03:00 +14°C° 0 mm 5 mps 747 mmHg 96%
    04:00 +13°C° 0 mm 4 mps 747 mmHg 96%
    05:00 +12°C° 0 mm 3 mps 748 mmHg 96%
    06:00 +13°C° 0 mm 4 mps 748 mmHg 93%
    07:00 +13°C° 0 mm 4 mps 748 mmHg 90%
    08:00 +14°C° 0 mm 4 mps 749 mmHg 87%
    09:00 +15°C° 0.2 mm 5 mps 749 mmHg 81%
    10:00 +16°C° 0.2 mm 6 mps 749 mmHg 76%
    11:00 +17°C° 0.2 mm 7 mps 749 mmHg 70%
    12:00 +18°C° 0.3 mm 7 mps 750 mmHg 64%
    13:00 +18°C° 0.3 mm 7 mps 751 mmHg 59%
    14:00 +18°C° 0 mm 7 mps 752 mmHg 54%
    15:00 +19°C° 0 mm 6 mps 753 mmHg 53%
    16:00 +17°C° 0 mm 6 mps 753 mmHg 52%
    17:00 +17°C° 0 mm 6 mps 753 mmHg 51%
    18:00 +17°C° 0 mm 4 mps 754 mmHg 57%
    19:00 +16°C° 0 mm 3 mps 754 mmHg 63%
    20:00 +15°C° 0 mm 1 mps 754 mmHg 69%
    21:00 +15°C° 0 mm 1 mps 755 mmHg 70%
    22:00 +15°C° 0 mm 2 mps 755 mmHg 71%
    23:00 +14°C° 0 mm 2 mps 756 mmHg 73%

    Tomorrow, 7 June, Sunday

    Time Temperature Precipitation Wind Pressure Humidity
    00:00 +14°C° 0 mm 2 mps 756 mmHg 73%
    01:00 +14°C° 0 mm 2 mps 756 mmHg 74%
    02:00 +14°C° 0 mm 2 mps 757 mmHg 74%
    03:00 +14°C° 0 mm 1 mps 757 mmHg 75%
    04:00 +14°C° 0 mm 1 mps 757 mmHg 77%
    05:00 +13°C° 0 mm 1 mps 757 mmHg 79%
    06:00 +14°C° 0 mm 2 mps 757 mmHg 79%
    07:00 +15°C° 0 mm 2 mps 758 mmHg 79%
    08:00 +16°C° 0 mm 2 mps 758 mmHg 79%
    09:00 +17°C° 0 mm 2 mps 758 mmHg 76%
    10:00 +18°C° 0 mm 3 mps 758 mmHg 72%
    11:00 +20°C° 0 mm 3 mps 758 mmHg 69%
    12:00 +21°C° 0 mm 3 mps 758 mmHg 67%
    13:00 +22°C° 0 mm 3 mps 758 mmHg 65%
    14:00 +24°C° 0 mm 3 mps 758 mmHg 63%
    15:00 +24°C° 1 mm 3 mps 758 mmHg 71%
    16:00 +23°C° 1 mm 2 mps 758 mmHg 78%
    17:00 +23°C° 1 mm 2 mps 757 mmHg 86%
    18:00 +21°C° 0.8 mm 2 mps 757 mmHg 88%
    19:00 +20°C° 0.8 mm 2 mps 757 mmHg 90%
    20:00 +19°C° 0.8 mm 2 mps 757 mmHg 92%
    21:00 +18°C° 0.6 mm 2 mps 756 mmHg 94%
    22:00 +18°C° 0.6 mm 2 mps 756 mmHg 95%
    23:00 +17°C° 0.6 mm 2 mps 756 mmHg 97%

    Day after tomorrow, 8 June, Monday

    Time Temperature Precipitation Wind Pressure Humidity
    00:00 +17°C° 0.1 mm 2 mps 756 mmHg 97%
    01:00 +17°C° 0.1 mm 2 mps 756 mmHg 97%
    02:00 +17°C° 0.1 mm 2 mps 756 mmHg 97%
    03:00 +18°C° 0.3 mm 1 mps 756 mmHg 98%
    04:00 +18°C° 0.3 mm 1 mps 756 mmHg 98%
    05:00 +18°C° 0.3 mm 1 mps 756 mmHg 98%
    06:00 +19°C° 0 mm 1 mps 756 mmHg 96%
    07:00 +20°C° 0 mm 1 mps 756 mmHg 93%
    08:00 +20°C° 0 mm 1 mps 756 mmHg 91%
    09:00 +21°C° 0.4 mm 1 mps 757 mmHg 87%
    10:00 +22°C° 0.4 mm 1 mps 757 mmHg 83%
    11:00 +24°C° 0.4 mm 2 mps 757 mmHg 78%
    12:00 +24°C° 0.9 mm 2 mps 756 mmHg 78%
    13:00 +24°C° 0.9 mm 2 mps 756 mmHg 78%
    14:00 +25°C° 0.9 mm 2 mps 756 mmHg 78%
    15:00 +24°C° 1 mm 2 mps 756 mmHg 80%
    16:00 +24°C° 1 mm 2 mps 756 mmHg 82%
    17:00 +23°C° 1 mm 2 mps 756 mmHg 84%
    18:00 +23°C° 0.2 mm 2 mps 756 mmHg 86%
    19:00 +22°C° 0.2 mm 1 mps 756 mmHg 88%
    20:00 +21°C° 0.2 mm 1 mps 756 mmHg 90%
    21:00 +21°C° 0 mm 1 mps 756 mmHg 91%
    22:00 +20°C° 0 mm 1 mps 756 mmHg 92%
    23:00 +20°C° 0 mm 1 mps 756 mmHg 93%

    9 June, Tuesday

    Time Temperature Precipitation Wind Pressure Humidity
    00:00 +19°C° 0.1 mm 1 mps 757 mmHg 94%
    01:00 +18°C° 0.1 mm 2 mps 757 mmHg 94%
    02:00 +18°C° 0.1 mm 2 mps 757 mmHg 95%
    03:00 +19°C° 0.3 mm 1 mps 757 mmHg 95%
    04:00 +19°C° 0.3 mm 1 mps 757 mmHg 96%
    05:00 +18°C° 0.3 mm 1 mps 757 mmHg 96%
    06:00 +19°C° 0.1 mm 1 mps 758 mmHg 94%
    07:00 +20°C° 0.1 mm 1 mps 758 mmHg 92%
    08:00 +20°C° 0.1 mm 1 mps 758 mmHg 90%
    09:00 +19°C° 0 mm 2 mps 759 mmHg 88%
    10:00 +20°C° 0 mm 2 mps 759 mmHg 86%
    11:00 +20°C° 0 mm 2 mps 759 mmHg 83%
    12:00 +20°C° 0 mm 3 mps 760 mmHg 81%
    13:00 +20°C° 0 mm 3 mps 760 mmHg 79%
    14:00 +20°C° 0 mm 3 mps 760 mmHg 77%
    15:00 +20°C° 0 mm 3 mps 760 mmHg 76%
    16:00 +20°C° 0 mm 3 mps 760 mmHg 76%
    17:00 +20°C° 0 mm 3 mps 760 mmHg 75%
    18:00 +19°C° 0 mm 3 mps 760 mmHg 78%
    19:00 +18°C° 0 mm 3 mps 760 mmHg 81%
    20:00 +17°C° 0 mm 3 mps 760 mmHg 84%
    21:00 +16°C° 0 mm 3 mps 760 mmHg 87%
    22:00 +14°C° 0 mm 3 mps 761 mmHg 90%
    23:00 +13°C° 0 mm 2 mps 761 mmHg 93%

    10 June, Wednesday

    Time Temperature Precipitation Wind Pressure Humidity
    00:00 +13°C° 0 mm 2 mps 761 mmHg 94%
    01:00 +13°C° 0 mm 2 mps 761 mmHg 95%
    02:00 +13°C° 0 mm 2 mps 761 mmHg 97%
    03:00 +13°C° 0 mm 2 mps 761 mmHg 96%
    04:00 +13°C° 0 mm 2 mps 761 mmHg 95%
    05:00 +13°C° 0 mm 3 mps 760 mmHg 95%
    06:00 +14°C° 0 mm 3 mps 760 mmHg 91%
    07:00 +17°C° 0 mm 3 mps 760 mmHg 87%
    08:00 +18°C° 0 mm 3 mps 760 mmHg 83%
    09:00 +19°C° 0 mm 3 mps 760 mmHg 82%
    10:00 +20°C° 0 mm 3 mps 760 mmHg 81%
    11:00 +21°C° 0 mm 3 mps 760 mmHg 80%
    12:00 +21°C° 0.1 mm 3 mps 760 mmHg 80%
    13:00 +21°C° 0.1 mm 3 mps 760 mmHg 80%
    14:00 +21°C° 0.1 mm 3 mps 759 mmHg 80%
    15:00 +21°C° 0.2 mm 3 mps 759 mmHg 82%
    16:00 +21°C° 0.2 mm 3 mps 759 mmHg 85%
    17:00 +20°C° 0.2 mm 2 mps 759 mmHg 88%
    18:00 +20°C° 0.2 mm 2 mps 759 mmHg 89%
    19:00 +20°C° 0.2 mm 2 mps 759 mmHg 90%
    20:00 +19°C° 0.2 mm 2 mps 758 mmHg 91%
    21:00 +19°C° 0.3 mm 2 mps 758 mmHg 92%
    22:00 +19°C° 0.3 mm 2 mps 759 mmHg 92%
    23:00 +19°C° 0.3 mm 2 mps 759 mmHg 92%

    11 June, Thursday

    Time Temperature Precipitation Wind Pressure Humidity
    00:00 +19°C° 0.8 mm 2 mps 758 mmHg 94%
    01:00 +19°C° 0.8 mm 2 mps 758 mmHg 95%
    02:00 +19°C° 0.8 mm 3 mps 758 mmHg 96%
    03:00 +19°C° 1.1 mm 3 mps 758 mmHg 97%
    04:00 +19°C° 1.1 mm 2 mps 758 mmHg 97%
    05:00 +19°C° 1.1 mm 2 mps 758 mmHg 98%
    06:00 +19°C° 0.5 mm 2 mps 758 mmHg 97%
    07:00 +20°C° 0.5 mm 3 mps 758 mmHg 96%
    08:00 +21°C° 0.5 mm 3 mps 758 mmHg 95%
    09:00 +22°C° 0.7 mm 3 mps 758 mmHg 91%
    10:00 +25°C° 0.7 mm 3 mps 758 mmHg 86%
    11:00 +27°C° 0.7 mm 3 mps 757 mmHg 82%
    12:00 +27°C° 0.2 mm 3 mps 757 mmHg 78%
    13:00 +28°C° 0.2 mm 3 mps 757 mmHg 74%
    14:00 +29°C° 0.2 mm 3 mps 757 mmHg 70%
    15:00 +28°C° 0.6 mm 3 mps 757 mmHg 73%
    16:00 +28°C° 0.6 mm 3 mps 757 mmHg 75%
    17:00 +28°C° 0.6 mm 2 mps 756 mmHg 78%
    18:00 +27°C° 0.4 mm 2 mps 756 mmHg 81%
    19:00 +26°C° 0.4 mm 2 mps 756 mmHg 84%
    20:00 +25°C° 0.4 mm 2 mps 756 mmHg 87%
    21:00 +24°C° 0.3 mm 2 mps 757 mmHg 89%
    22:00 +23°C° 0.3 mm 2 mps 757 mmHg 91%
    23:00 +21°C° 0.3 mm 2 mps 757 mmHg 93%
    Show more